St. Augustine, FL

5:08 PM EST on November 18, 2019 (GMT -0500)
Saint Augustine

Weather History for KSGJ - October, 2019

Change the Weather History Date:

Tuesday, October 22, 2019

  Actual Average Record
Temperature  
Mean Temperature 81 °F -  
Max Temperature 90 °F 76 °F 91 °F (2005)
Min Temperature 73 °F 61 °F 38 °F (1989)
Cooling Degree Days 16    
Growing Degree Days 31 (Base 50)    
Moisture  
Dew Point 74 °F    
Average Humidity 86    
Maximum Humidity 100    
Minimum Humidity 61    
Precipitation  
Precipitation 0.05 in - - ()
Sea Level Pressure  
Sea Level Pressure 29.98 in    
Wind  
Wind Speed 6 mph (WSW)    
Max Wind Speed 15 mph    
Max Gust Speed 23 mph    
Visibility 9 miles    
Events      
Averages and records for this station are not official NWS values.
T = Trace of Precipitation, MM = Missing Value Source: NWS Daily Summary

Daily Weather History Graph

Daily Weather History Graph

Search for Another Location

Airport or City:

Astronomy

Oct. 22, 2019 Rise Set
Actual Time 7:31 AM EDT 6:47 PM EDT
Civil Twilight 7:07 AM EDT 7:11 PM EDT
Nautical Twilight 6:39 AM EDT 7:39 PM EDT
Astronomical Twilight 6:11 AM EDT 8:07 PM EDT
Moon 1:15 AM EDT (10/22) 3:22 PM EDT (10/22)
Length of Visible Light 12h 04m
Length of Day
11h 15m
Last Quarter, 37% of the Moon is Illuminated
Oct 22
Last Quarter
Oct 27
New
Nov 4
First Quarter
Nov 12
Full
Nov 19
Last Quarter

Hourly Weather History & Observations

Time (EDT) Temp. Heat Index Dew Point Humidity Pressure Visibility Wind Dir Wind Speed Gust Speed Precip Events Conditions
12:56 AM 75.9 °F - 75.0 °F 97% 30.00 in 10.0 mi SW 3.5 mph - N/A   Mostly Cloudy
1:56 AM 75.0 °F - 73.9 °F 96% 30.00 in 10.0 mi SW 5.8 mph - N/A   Scattered Clouds
2:56 AM 75.0 °F - 73.9 °F 96% 29.98 in 10.0 mi SSW 4.6 mph - N/A   Clear
3:25 AM 75.2 °F - 73.4 °F 94% 29.97 in 9.0 mi SW 4.6 mph - N/A   Partly Cloudy
3:56 AM 75.0 °F - 73.9 °F 96% 29.98 in 8.0 mi WSW 3.5 mph - N/A   Partly Cloudy
4:15 AM 75.2 °F - 73.4 °F 94% 29.98 in 8.0 mi WSW 3.5 mph - N/A   Mostly Cloudy
4:24 AM 75.2 °F - 73.4 °F 94% 29.98 in 8.0 mi SW 4.6 mph - N/A   Mostly Cloudy
4:56 AM 75.0 °F - 75.0 °F 100% 29.97 in 6.0 mi South 5.8 mph - N/A   Overcast
5:07 AM 75.2 °F - 75.2 °F 100% 29.98 in 5.0 mi SW 5.8 mph - N/A   Overcast
5:56 AM 75.9 °F - 75.0 °F 97% 29.99 in 4.0 mi WSW 5.8 mph - N/A   Overcast
6:56 AM 77.0 °F - 75.9 °F 96% 29.98 in 4.0 mi SSW 8.1 mph - N/A   Overcast
7:18 AM 75.2 °F - 75.2 °F 100% 29.97 in 10.0 mi SSW 6.9 mph - N/A   Overcast
7:56 AM 75.9 °F - 75.0 °F 97% 29.98 in 4.0 mi SW 8.1 mph - N/A   Overcast
8:54 AM 78.8 °F - 75.2 °F 89% 29.99 in 4.0 mi SW 9.2 mph - N/A   Mostly Cloudy
8:56 AM 78.1 °F - 75.9 °F 93% 29.99 in 4.0 mi SW 10.4 mph - N/A   Mostly Cloudy
9:56 AM 81.0 °F 87.3 °F 75.9 °F 85% 29.99 in 10.0 mi SW 8.1 mph - N/A   Scattered Clouds
10:56 AM 82.9 °F 90.8 °F 75.9 °F 79% 29.99 in 10.0 mi SW 10.4 mph - N/A   Mostly Cloudy
11:03 AM 84.2 °F 92.3 °F 75.2 °F 74% 29.98 in 10.0 mi SSW 10.4 mph - N/A   Mostly Cloudy
11:46 AM 84.2 °F 92.3 °F 75.2 °F 74% 29.98 in 10.0 mi WSW 12.7 mph 20.7 mph N/A   Scattered Clouds
11:56 AM 84.9 °F 94.1 °F 75.9 °F 74% 29.97 in 10.0 mi SW 10.4 mph - N/A   Mostly Cloudy
12:16 PM 84.2 °F 92.3 °F 75.2 °F 74% 29.97 in 10.0 mi SW 10.4 mph 19.6 mph N/A   Mostly Cloudy
12:56 PM 87.1 °F 97.3 °F 75.9 °F 69% 29.95 in 10.0 mi SW 11.5 mph 16.1 mph N/A   Mostly Cloudy
1:11 PM 87.8 °F 97.6 °F 75.2 °F 66% 29.94 in 10.0 mi WSW 10.4 mph 18.4 mph N/A   Scattered Clouds
1:56 PM 89.1 °F 98.0 °F 73.9 °F 61% 29.92 in 10.0 mi WSW 11.5 mph 23.0 mph N/A   Mostly Cloudy
2:56 PM 88.0 °F 97.5 °F 75.0 °F 65% 29.91 in 10.0 mi West 10.4 mph 17.3 mph 0.00 in   Scattered Clouds
3:56 PM 88.0 °F 95.6 °F 73.0 °F 61% 29.91 in 10.0 mi WNW 10.4 mph - N/A   Mostly Cloudy
4:56 PM 82.9 °F 89.4 °F 73.9 °F 74% 29.93 in 10.0 mi West 15.0 mph - 0.05 in   Partly Cloudy
5:56 PM 80.1 °F 83.8 °F 72.0 °F 76% 29.94 in 10.0 mi West 6.9 mph - N/A   Mostly Cloudy
6:56 PM 78.1 °F - 73.0 °F 84% 29.96 in 10.0 mi West 4.6 mph - N/A   Scattered Clouds
7:56 PM 75.9 °F - 73.9 °F 94% 29.98 in 10.0 mi WSW 3.5 mph - N/A   Clear
8:56 PM 75.0 °F - 73.9 °F 96% 29.99 in 10.0 mi West 5.8 mph - N/A   Clear
9:56 PM 75.0 °F - 73.0 °F 94% 30.01 in 10.0 mi Calm Calm - N/A   Clear
10:56 PM 73.9 °F - 73.0 °F 97% 30.02 in 10.0 mi Calm Calm - N/A   Clear
11:28 PM 73.4 °F - 73.4 °F 100% 30.03 in 10.0 mi NW 6.9 mph - N/A   Mostly Cloudy
11:56 PM 73.9 °F - 70.0 °F 87% 30.03 in 10.0 mi NW 9.2 mph - N/A   Overcast